Regional Weather Roundup
Issued by NWS Boston, MA

Home | Current Version | Previous Version | Text Only | Print | Product List | Glossary On
Versions: 1 2 3 4 5 6 7 8 9 10 11 12 13 14 15 16 17 18 19 20 21 22 23 24 25 26 27 28 29 30 31 32 33 34 35 36 37 38 39 40 41 42 43 44 45 46 47 48 49 50
000
ASUS41 KBOX 090810
RWRBOX

REGIONAL WEATHER ROUNDUP
NATIONAL WEATHER SERVICE TAUNTON MA
300 AM EST FRI DEC 09 2016

NOTE:  "FAIR" INDICATES FEW OR NO CLOUDS BELOW 12,000 FEET WITH NO
SIGNIFICANT WEATHER AND/OR OBSTRUCTIONS TO VISIBILITY.

MAZALL-090900-
EASTERN MASSACHUSETTS

CITY           SKY/WX    TMP DP  RH WIND       PRES   REMARKS
BOSTON         CLEAR     33  17  51 W18       29.85S WCI  22
BEVERLY        CLEAR     32  17  54 W8G21     29.82R WCI  25
LAWRENCE       PTCLDY    32  17  54 W13       29.84R WCI  22
BEDFORD        PTCLDY    30  14  51 W8        29.83S WCI  22
BLUE HILL        N/A     27  15  61 W15       29.82R WCI  15
NORWOOD        CLEAR     31  16  54 W6        29.86R WCI  25
MARSHFIELD     CLEAR     32  18  55 W7        29.86R WCI  26
PLYMOUTH       CLEAR     30  17  58 W10       29.87R WCI  21
TAUNTON        CLEAR     31  17  56 SW6       29.88R WCI  25
NEW BEDFORD    CLEAR     33  18  53 W12G21    29.88R WCI  24
$$

MAZALL-090900-
CAPE COD AND THE ISLANDS

CITY           SKY/WX    TMP DP  RH WIND       PRES   REMARKS
FALMOUTH         N/A     32  18  55 MISG      29.84S
HYANNIS        CLEAR     33  18  53 W8        29.86R WCI  26
CHATHAM        CLEAR     33  18  53 W9        29.87R WCI  25
PROVINCETOWN   CLEAR     35  20  54 NW22G29   29.85R WCI  23
NANTUCKET      CLEAR     35  18  49 W20G30    29.88R WCI  24
MARTHAS VNYRD  CLEAR     35  18  49 NW17G25   29.89R WCI  25
$$

MAZALL-090900-
CENTRAL AND WESTERN MASSACHUSETTS

CITY           SKY/WX    TMP DP  RH WIND       PRES   REMARKS
WORCESTER      CLEAR     27  14  58 W17       29.81S WCI  14
FITCHBURG      CLEAR     32  14  47 W9G20     29.83S WCI  24
ORANGE         CLEAR     30  16  56 W8        29.85S WCI  22
SPRINGFIELD    PTCLDY    31  15  53 W9        29.89R WCI  22
WESTFIELD      PTCLDY    32  18  56 W18G24    29.90R WCI  20
NORTH ADAMS    CLOUDY    30  17  58 W15G29    29.88R WCI  19
$$

RIZALL-090900-
RHODE ISLAND

CITY           SKY/WX    TMP DP  RH WIND       PRES   REMARKS
PROVIDENCE     PTCLDY    31  18  58 W10       29.90R WCI  22
NEWPORT        CLEAR     32  21  64 VRB7      29.90R WCI  26
BLOCK ISLAND   PTCLDY    36  22  56 W15G25    29.92R WCI  27
SMITHFIELD     CLEAR     29  18  63 W8        29.87R WCI  21
WESTERLY       CLEAR     33  19  56 VRB6      29.94R WCI  28
$$

CTZALL-090900-
CONNECTICUT

CITY           SKY/WX    TMP DP  RH WIND       PRES   REMARKS
BRADLEY INTL   PTCLDY    26  17  68 CALM      29.92R
HARTFORD       PTCLDY    31  20  63 W3        29.94R
BRIDGEPORT     CLEAR     35  17  47 W7        29.98  WCI  29
DANBURY        CLEAR     31  16  54 VRB7G20   29.96R WCI  24
GROTON         CLEAR     35  21  56 W8        29.94R WCI  29
NEW HAVEN      CLEAR     34  20  56 W10G17    29.97R WCI  26
CHESTER        FAIR      30  19  64 VRB6      29.93R WCI  24
MERIDEN        PTCLDY    33  18  53 W8        29.95R WCI  26
WILLIMANTIC    PTCLDY    32  20  61 W6        29.92R WCI  26
OXFORD         CLEAR     30  16  55 W8        29.94R WCI  23
$$

MEZ002-015-021-024-NHZ003-005-008-011-012-014-VTZ005-008-090900-
NORTHERN NEW ENGLAND

CITY           SKY/WX    TMP DP  RH WIND       PRES   REMARKS
PORTLAND ME    CLEAR     29  19  66 SW8       29.75S WCI  21
BANGOR ME      CLEAR     28  21  75 W6        29.65S WCI  22
CONCORD NH     CLEAR     31  17  56 SW8       29.78S WCI  23
MANCHESTER NH  CLEAR     32  15  49 VRB7G17   29.80S WCI  26
NASHUA NH      PTCLDY    31  18  58 W8G16     29.82F WCI  23
PORTSMOUTH NH  CLEAR     30  17  58 W9        29.78R WCI  22
JAFFREY NH     CLEAR     28  14  55 VRB7G20   29.80R WCI  21
KEENE NH       CLEAR     29  18  63 SW7       29.84S WCI  22
BURLINGTON VT  CLOUDY    29  18  63 W16G23    29.85R WCI  17
MT. WASHINGTON SNOW       5   5 100 W83G92      N/A  VSB 0   WCI -29
$$

NYZ052-076-090900-
EASTERN NEW YORK

CITY           SKY/WX    TMP DP  RH WIND       PRES   REMARKS
ALBANY         MOCLDY    30  20  66 SW5       29.94R WCI  25
NEW YORK CITY  CLEAR     35  16  45 W20G28    30.03R WCI  24
$$

ANZALL-090900-
MARINE OBSERVATIONS

STATION/POSITION TIME  TEMP    WIND        PRES    VSBY  WAVE
                       AIR SEA DIR/SP/G                  HT/PER
                 (UTC) (F)     (DEG/KT/KT) (MB)    (MI)  (FT/S)
BOSTON BUOY      0750   37 50  280/ 23/ 31 1009.1R         3/ 4
BUZZARDS BAY     0700   36     290/ 28/ 32 1012.1S
NANTUCKET SOUND  NOT AVBL
MASS BAY-STELLWA 0704   37 49  280/ 21/ 27 1009.3R  1 7/8  4/ 4
ISLE OF SHOALS   0800   34     250/ 21/ 24 1008.5R
S OF BLOCK IS    0755      54                N/A           7/ 6
$$

......................KEY.........................
  SKY/WX - SKY CONDITION/PRESENT WEATHER
  TMP    - TEMPERATURE IN FAHRENHEIT
  DWPT   - DEWPOINT IN FAHRENHEIT
  RH     - RELATIVE HUMIDITY IN PERCENT
  WIND   - DIRECTION AND SPEED IN MPH
  PRES   - MEAN SEA LEVEL PRESSURE IN INCHES OF HG
  WCI    - WIND CHILL INDEX
  VSB    - VISIBILITY IN MILES
  HX     - HEAT INDEX
  TC     - TEMPERATURE IN CELSIUS
  VRB    - VARIABLE WIND DIRECTION
  N/A    - NOT AVAILABLE



USA.gov is the U.S. government's official web portal to all federal, state and local government web resources and services.